• Processing (Info)

  • MPEC 2023-R111 : 2023 RK3

    The following Minor Planet Electronic Circular may be linked-to from your own Web pages, but must not otherwise be redistributed electronically.

    A form allowing access to any MPEC is at the bottom of this page.


    Read MPEC 2023-R110 Read MPEC 2023-R112


    M.P.E.C. 2023-R111                           Issued 2023 September 10, 22:13 UT
    
         The Minor Planet Electronic Circulars contain information on unusual
             minor planets, routine data on comets and natural satellites,
             and occasional editorial announcements.  They are published
        on behalf of Division F of the International Astronomical Union by the
              Minor Planet Center, Smithsonian Astrophysical Observatory,
                              Cambridge, MA 02138, U.S.A.
    			  
                 Prepared using the Tamkin Foundation Computer Network
    
                                  MPC@CFA.HARVARD.EDU
                URL https://www.minorplanetcenter.net/    ISSN 1523-6714
    
                                    2023 RK3                                 
    
    
    Observations:
         K23R03K*1C2023 09 09.33641023 06 39.287+40 09 05.18         20.38GVER111G96
         K23R03K 1C2023 09 09.34168523 06 41.576+40 08 27.92         20.26GVER111G96
         K23R03K 1C2023 09 09.34693423 06 43.916+40 07 49.15         20.40GVER111G96
         K23R03K 1C2023 09 09.35218123 06 46.199+40 07 11.10         20.63GVER111G96
         K23R03K KC2023 09 09.45292323 07 31.620+39 54 40.60         21.03GVER111I52
         K23R03K KC2023 09 09.45505723 07 32.630+39 54 24.20         20.96GVER111I52
         K23R03K KC2023 09 09.45719923 07 33.610+39 54 08.10         20.86GVER111I52
         K23R03K 2C2023 09 09.83646623 10 57.52 +39 06 35.3          20.5 GVER111Z84
         K23R03K 2C2023 09 09.84254023 11 00.44 +39 05 50.6          20.5 GVER111Z84
         K23R03K 2C2023 09 09.84840223 11 03.25 +39 05 07.3          20.7 GVER111Z84
         K23R03K KC2023 09 09.91681023 11 33.09 +38 56 25.8          20.2 GVER111L01
         K23R03K IC2023 09 09.91933423 11 34.23 +38 56 05.9          20.7 GVER111L01
         K23R03K IC2023 09 09.92185823 11 35.50 +38 55 46.0          20.6 GVER111L01
         K23R03K 1C2023 09 10.02314 23 12 23.08 +38 42 18.6          20.3 VXER111033
         K23R03K 1C2023 09 10.02423 23 12 23.59 +38 42 10.0          20.5 VXER111033
         K23R03K 1C2023 09 10.02533 23 12 24.11 +38 42 01.2          20.0 VXER111033
         K23R03K KB2023 09 10.16722 23 13 32.465+38 23 04.70         20.8 VZER111J57
         K23R03K KB2023 09 10.17022 23 13 33.938+38 22 40.33         20.4 VZER111J57
         K23R03K 1C2023 09 10.34886823 15 10.994+37 59 02.00         20.41GVER111G96
         K23R03K 1C2023 09 10.35414023 15 13.453+37 58 17.58         20.34GVER111G96
         K23R03K 1C2023 09 10.35942223 15 15.908+37 57 33.84         20.42GVER111G96
         K23R03K 1C2023 09 10.37283823 15 22.241+37 55 39.65         20.59GVER111G96
         K23R03K 1C2023 09 10.79574 23 19 14.18 +36 54 14.7          20.4 VXER111033
         K23R03K 1C2023 09 10.79648 23 19 14.57 +36 54 08.2          20.1 VXER111033
         K23R03K 1C2023 09 10.79723 23 19 14.95 +36 54 01.8          20.4 VXER111033
         K23R03K KC2023 09 10.82261623 19 28.61 +36 50 30.4          20.3 GVER111L06
         K23R03K KC2023 09 10.82544323 19 30.05 +36 50 06.3          20.4 GVER111L06
         K23R03K KC2023 09 10.82779823 19 31.24 +36 49 46.1          20.1 GVER111L06
         K23R03K 1C2023 09 10.83094023 19 32.160+36 49 16.80               VER111246
         K23R03K 1C2023 09 10.83207023 19 32.690+36 49 07.00               VER111246
         K23R03K 1C2023 09 10.83401523 19 33.640+36 48 49.50               VER111246
         K23R03K 1C2023 09 10.83504023 19 34.180+36 48 40.70               VER111246
         K23R03K KC2023 09 10.89533123 20 04.96 +36 40 02.5          20.2 GVER111104
         K23R03K KC2023 09 10.90583423 20 10.11 +36 38 29.7          20.1 GVER111104
         K23R03K KC2023 09 10.91108423 20 12.71 +36 37 43.6          20.4 GVER111104
    
    Observer details:
    033 Karl Schwarzschild Observatory, Tautenburg.  Observers S. Melnikov, C.
        Hoegner, F. Ludwig, M. Hartmann, B. Stecklum.  Measurer B. Stecklum.
        1.34-m f/3 Schmidt + CCD.
    104 San Marcello Pistoiese.  Observers P. Bacci, M. Maestripieri.  Measurers
        P. Bacci, L. Tesi, G. Fagioli.  0.60-m F4 Reflector + CCD.
    246 Klet Observatory-KLENOT.  Observers M. Tichy, J. Ticha, M. Janda, M.
        Honkova.  Measurer M. Tichy.  1.06-m f/2.7 Reflector + 2048x2048 CCD.
    G96 Mt. Lemmon Survey.  Observer D. C. Fuls.  Measurers E. J. Christensen, D.
        Fay, J. B. Fazekas, D. C. Fuls, A. R. Gibbs, A. D. Grauer, H. Groeller, J.
        K. Hogan, R. A. Kowalski, S. M. Larson, G. J. Leonard, D. Rankin, R. L.
        Seaman, A. Serrano, F. C. Shelly, K. W. Wierzchos.  1.5-m reflector + 10K
        CCD.
    I52 Steward Observatory, Mt. Lemmon Station.  Observer J. B. Fazekas.
        Measurers E. J. Christensen, D. Fay, J. B. Fazekas, D. C. Fuls, A. R.
        Gibbs, A. D. Grauer, H. Groeller, J. K. Hogan, R. A. Kowalski, S. M.
        Larson, G. J. Leonard, D. Rankin, R. L. Seaman, A. Serrano, F. C. Shelly,
        K. W. Wierzchos.  1.0-m prime focus + CCD.
    J57 Centro Astronomico Alto Turia, Valencia.  Observer A. Fornas.  Measurers
        A. Fornas, G. Fornas, E. Arce, V. Mas.  0.43-m f/6.8 Reflector 0.4m + CMO.
    L01 Visnjan Observatory, Tican.  Observers K. Korlevic, I. Lyon.  Measurer K.
        Korlevic.  1.0-m f/2.9 reflector + CCD.
    L06 Sormano 2 Observatory, Bellagio Via Lattea.  Observer G. Ventre.  Measurer
        P. Sicoli.  0.36m Schmidt Cassegrain + CCD.
    Z84 Calar Alto-Schmidt.  Observer E. Schwab.  Measurers E. Schwab, M. Micheli.
        0.8-m f/3 Schmidt + CCD.
    
    Orbital elements:
    2023 RK3                                                 Earth MOID = 0.0466 AU
    Epoch 2023 Sept. 13.0 TT = JDT 2460200.5                Veres                   
    M 342.24366              (2000.0)            P               Q                  
    n   0.69378868     Peri.  199.93672     +0.96114378     -0.27518181             
    a   1.2637211      Node   175.84707     +0.27594677     +0.95562860             
    e   0.1752117      Incl.   17.56408     +0.00748390     +0.10511397             
    P   1.42           H   24.61          G   0.15           U   8                  
    Residuals in seconds of arc
    230909 G96  0.3+  0.4-    230909 L01  0.6+  0.6-    230910 033  0.2+  0.1-
    230909 G96  0.1-  0.6+    230910 033  0.1+  0.0     230910 L06  0.1-  0.0
    230909 G96  0.2+  0.1-    230910 033  0.0   0.2+    230910 L06  0.0   0.2+
    230909 G96  0.1-  0.1+    230910 033  0.0   0.2+    230910 L06  0.0   0.2+
    230909 I52  0.2-  0.0     230910 J57  0.3+  0.6-    230910 246  0.3+  0.2-
    230909 I52  0.1+  0.2-    230910 J57  0.3+  0.2+    230910 246  0.1-  0.2-
    230909 I52  0.1-  0.0     230910 G96  0.1+  0.0     230910 246  0.5-  0.8-
    230909 Z84  0.1-  0.2+    230910 G96  0.0   0.2-    230910 246  0.2-  0.8-
    230909 Z84  0.1-  0.2+    230910 G96  0.2-  0.5+    230910 104  0.0   0.1-
    230909 Z84  0.0   0.2+    230910 G96  0.3+  0.3-    230910 104  0.3-  0.3-
    230909 L01  0.1-  0.4+    230910 033  0.2+  0.0     230910 104  0.0   0.1+
    230909 L01  0.5-  0.1-    230910 033  0.3+  0.1-
    
    Ephemeris:
    2023 RK3                 a,e,i = 1.26, 0.18, 18                  q = 1.0423
    Date    TT    R. A. (2000) Decl.     Delta      r    Elong.  Phase     V
    2023 08 11    21 16 09.8 +52 47 45   0.2237  1.1159   111.7    57.6    23.7
    ...
    2023 08 26    21 48 30.0 +52 14 49   0.1470  1.0850   116.8    56.3    22.7
    ...
    2023 09 03    22 23 21.4 +48 24 48   0.1063  1.0713   123.5    51.7    21.8
    ...
    2023 09 09    23 03 56.6 +40 48 05   0.07783 1.0626   133.6    43.4    20.9
    2023 09 10    23 12 13.1 +38 45 55   0.07348 1.0613   136.0    41.3    20.7
    2023 09 11    23 20 57.2 +36 24 47   0.06932 1.0600   138.7    38.8    20.5
    ...
    2023 09 17    00 22 24.6 +13 22 14   0.05069 1.0533   160.4    18.7    19.2
    ...
    2023 09 25    01 55 38.4 -29 36 17   0.05609 1.0467   139.9    38.1    20.0
    ...
    2023 10 10    03 56 05.4 -55 54 33   0.1204  1.0423   107.9    65.7    22.4
    
    M. P. C. Staff               (C) Copyright 2023 MPC           M.P.E.C. 2023-R111
    


    Read MPEC 2023-R110 Read MPEC 2023-R112


    MPEC number:

    Enter an MPEC number in one of the following forms:

    • 1997-B01 (the full form)
    • J97B01 (the packed version of the full form)
    • B01 (the abbreviated form)